899  
ASUS43 KDMX 161606  
RWRIA  
 
WEATHER ROUNDUP FOR IOWA  
NATIONAL WEATHER SERVICE DES MOINES IA  
1100 AM CDT TUE JUL 16 2019  
 
NOTE: "FAIR" INDICATES FEW OR NO CLOUDS BELOW 12,000 FEET WITH NO  
SIGNIFICANT WEATHER AND/OR S TO VISIBILITY
.  
 
* - THESE STATIONS ARE NOT NWS STATIONS...THUS NOT UNDER NWS  
QUALITY CONTROL. THEY ALSO DO NOT REPORT WEATHER SUCH  
AS PRECIPITATION OR FOG.
 
 
IAZ001>003-012>014-020>022-031>034-043>046-161700-  
NORTHWEST IOWA  
 
CITY SKY/WX TMP DP RH WIND PRES REMARKS
 
CARROLL * MOSUNNY 75 72 88 W12 29.87F  
CHEROKEE * MOSUNNY 76 73 91 SW6 29.91R  
DENISON * MOSUNNY 75 73 94 W8 29.93S  
LE MARS * SUNNY 77 70 78 SW5 29.91F  
SHELDON * LGT RAIN 70 68 94 MISG 29.90F  
SIOUX CITY SUNNY 77 71 82 S8 29.92R  
SPENCER LGT RAIN 73 69 87 NW7 29.90R  
STORM LAKE * SUNNY 72 72 100 SW9 29.89S  

 
 
IAZ055>058-069>071-079>083-090>094-161700-  
SOUTHWEST IOWA  
 
CITY SKY/WX TMP DP RH WIND PRES REMARKS
 
ATLANTIC * MOSUNNY 75 75 100 SW12G17 29.89F  
AUDUBON * SUNNY 75 72 88 W3 29.89F  
CLARINDA * PTSUNNY 75 75 100 S10 29.92F  
COUNCIL BLFS * SUNNY 79 77 94 S7 29.90F HX 83  
CRESTON * PTSUNNY 72 70 94 SW8 29.93R  
HARLAN * MOSUNNY 75 73 94 SW12 29.90F  
LAMONI SUNNY 78 69 73 CALM 29.92F HX 80  
RED OAK * SUNNY 77 73 88 SW5 29.90F  
SHENANDOAH * PTSUNNY 77 73 88 S6 29.89F  

 
 
IAZ047>049-059>061-072>074-084-161700-  
CENTRAL IOWA  
 
CITY SKY/WX TMP DP RH WIND PRES REMARKS
 
AMES SUNNY 77 71 82 SW6 29.90F  
ANKENY * SUNNY 79 70 73 VRB3 29.90F HX 81  
BOONE * SUNNY 77 75 94 VRB3 29.90F  
CHARITON * SUNNY 79 72 78 CALM 29.92F HX 82  
DES MOINES CLOUDY 77 68 73 SE6 29.89F  
GRINNELL* SUNNY 79 68 67 CALM 29.94F HX 82  
KNOXVILLE * SUNNY 79 70 73 W3 29.92F HX 81  
MARSHALLTOWN SUNNY 79 71 76 S6 29.91F HX 82  
NEWTON * SUNNY 81 72 74 VRB5 29.91F HX 84  
PELLA * SUNNY 81 67 62 CALM 29.94F HX 83  

 
 
IAZ004>006-015-016-023>025-035-036-161700-  
NORTH CENTRAL IOWA  
 
CITY SKY/WX TMP DP RH WIND PRES REMARKS
 
ALGONA * MOSUNNY 75 73 94 SW17 29.89R  
CLARION * PTSUNNY 79 73 83 SW10 29.91R HX 82  
ESTHERVILLE TSTM 72 70 93 SW15 29.92R VSB 1  
FORT DODGE * SUNNY 76 71 85 SW7 29.91R  
MASON CITY SUNNY 82 71 69 S8 29.91F HX 86  
FOREST CITY * PTSUNNY 79 72 78 W3 29.90S HX 82  
IOWA FALLS * FAIR 80 73 77 SW7 29.92S HX 84  

 
 
IAZ007>011-017>019-026>030-037>042-050>054-066-161700-  
NORTHEAST IOWA  
 
CITY SKY/WX TMP DP RH WIND PRES REMARKS
 
CEDAR RAPIDS CLOUDY 75 69 81 VRB3 29.95S  
CHARLES CITY * FAIR 79 73 83 SW8G15 29.92F HX 82  
CLINTON * CLOUDY 75 70 84 CALM 29.95S  
DECORAH * FAIR 81 72 74 VRB6 29.92S HX 84  
DUBUQUE FAIR 75 69 81 S5 29.96S  
MONTICELLO * PTSUNNY 77 73 88 VRB5 29.95R  
OELWEIN * MOSUNNY 79 73 83 VRB5 29.94F HX 82  
WATERLOO PTSUNNY 81 69 67 SW6 29.91F HX 84  

 
 
IAZ064-065-067-068-078-161700-  
EAST CENTRAL IOWA  
 
CITY SKY/WX TMP DP RH WIND PRES REMARKS
 
DAVENPORT CLOUDY 75 68 78 CALM 29.96S  
IOWA CITY CLOUDY 77 69 76 SW3 29.97S  
MT. PLEASANT * CLOUDY 73 72 94 CALM 29.96R  
MUSCATINE * CLOUDY 77 70 78 NW6 29.95R  
QUAD CITIES CLOUDY 77 70 79 E5 29.93R  

 
 
IAZ062-063-075>077-085>089-095>099-161700-  
SOUTHEAST IOWA  
 
CITY SKY/WX TMP DP RH WIND PRES REMARKS
 
BURLINGTON CLOUDY 76 70 82 VRB3 29.93S  
FAIRFIELD * CLOUDY 73 68 83 W7 29.96S  
FORT MADISON * CLOUDY 75 72 88 NW6 29.95R  
KEOKUK * CLOUDY 77 72 83 NW7 29.93R  
OSKALOOSA * N/A 78 67 71 NW6 29.96F  
CENTERVILLE * FAIR 77 72 83 CALM 29.97F  
OTTUMWA CLOUDY 75 68 78 NW6 29.95S  
WASHINGTON * CLOUDY 75 72 88 W6 29.94S  

 
 
ABBREVIATIONS USED IN REMARKS  
TC - TEMPERATURES IN CELSIUS  
WCI - WIND CHILL INDEX  
HX - HEAT INDEX  
VSB - VISIBILITY  

 
 
 
 
CLICK HERE TO GO TO PREVIOUS BULLETINS.

The Nexlab IA Page Main Text Page